Weather History for Long Beach, CA

Change the Weather History Date:

Tuesday, September 24, 2013

  Actual Average Record
Temperature  
Mean Temperature 76 °F 72 °F  
Max Temperature 89 °F 81 °F 106 °F (1978)
Min Temperature 63 °F 62 °F 54 °F (1973)
Degree Days  
Heating Degree Days 0 0  
Month to date heating degree days 0 0  
Since 1 July heating degree days 0 0  
Cooling Degree Days 11 7  
Month to date cooling degree days 249 195  
Year to date cooling degree days 1059 963  
Growing Degree Days 26 (Base 50)    
Moisture  
Dew Point 50 °F    
Average Humidity 47    
Maximum Humidity 78    
Minimum Humidity 16    
Precipitation  
Precipitation 0.00 in 0.01 in 1.39 in (1986)
Month to date precipitation 0.00 0.12  
Year to date precipitation 2.94 8.62  
Since 1 July precipitation 0.07 0.18  
Sea Level Pressure  
Sea Level Pressure 29.88 in    
Wind  
Wind Speed 4 mph (West)    
Max Wind Speed 15 mph    
Max Gust Speed 18 mph    
Visibility 10 miles    
Events      
T = Trace of Precipitation, MM = Missing Value Source: NWS Daily Summary

Daily Weather History Graph

Daily Weather History Graph

Search for Another Location

Airport:

Trip Planner

Search our weather history database for the weather conditions in past years. The results will help you decide how hot, cold, wet, or windy it might be!

Date:

Astronomy

Sep. 24, 2013 Rise Set
Actual Time 6:42 AM PDT 6:46 PM PDT
Civil Twilight 6:17 AM PDT 7:10 PM PDT
Nautical Twilight 5:48 AM PDT 7:39 PM PDT
Astronomical Twilight 5:19 AM PDT 8:09 PM PDT
Moon 10:21 PM PDT (9/24) 11:46 AM PDT (9/24)
Length of Visible Light 12h 53m
Length of Day
12h 03m
Waning Gibbous, 72% of the Moon is Illuminated
Sep 24
Waning Gibbous
Sep 26
Last Quarter
Oct 4
New
Oct 11
First Quarter
Oct 18
Full

Hourly Weather History & Observations

Time (PDT) Temp. Dew Point Humidity Pressure Visibility Wind Dir Wind Speed Gust Speed Precip Events Conditions
12:53 AM 64.9 °F 57.0 °F 75% 29.89 in 10.0 mi Calm Calm - N/A   Clear
1:53 AM 64.0 °F 57.0 °F 78% 29.90 in 9.0 mi Calm Calm - N/A   Clear
2:53 AM 64.9 °F 57.0 °F 75% 29.89 in 10.0 mi Calm Calm - N/A   Clear
3:53 AM 64.9 °F 55.9 °F 73% 29.88 in 10.0 mi Calm Calm - N/A   Clear
4:53 AM 64.0 °F 55.9 °F 75% 29.88 in 10.0 mi Calm Calm - N/A   Clear
5:53 AM 64.0 °F 54.0 °F 70% 29.88 in 10.0 mi Calm Calm - N/A   Clear
6:53 AM 63.0 °F 53.1 °F 70% 29.89 in 10.0 mi NW 4.6 mph - N/A   Clear
7:53 AM 68.0 °F 51.1 °F 55% 29.90 in 10.0 mi Calm Calm - N/A   Clear
8:53 AM 73.9 °F 48.9 °F 41% 29.91 in 10.0 mi Calm Calm - N/A   Clear
9:53 AM 79.0 °F 48.0 °F 34% 29.92 in 10.0 mi SW 3.5 mph - N/A   Clear
10:53 AM 82.9 °F 46.9 °F 28% 29.92 in 10.0 mi Variable 3.5 mph - N/A   Clear
11:53 AM 84.9 °F 48.0 °F 28% 29.91 in 10.0 mi Calm Calm - N/A   Clear
12:53 PM 86.0 °F 48.0 °F 27% 29.89 in 10.0 mi South 5.8 mph - N/A   Clear
1:53 PM 88.0 °F 46.0 °F 23% 29.87 in 10.0 mi WNW 10.4 mph - N/A   Clear
2:53 PM 87.1 °F 42.1 °F 21% 29.85 in 10.0 mi West 6.9 mph - N/A   Clear
3:53 PM 88.0 °F 39.0 °F 18% 29.84 in 10.0 mi WNW 9.2 mph - N/A   Clear
4:53 PM 86.0 °F 36.0 °F 17% 29.83 in 10.0 mi NW 10.4 mph - N/A   Clear
5:53 PM 81.0 °F 37.0 °F 21% 29.84 in 10.0 mi WNW 12.7 mph - N/A   Clear
6:53 PM 75.9 °F 46.9 °F 36% 29.83 in 10.0 mi West 4.6 mph - N/A   Clear
7:53 PM 72.0 °F 54.0 °F 53% 29.84 in 10.0 mi WNW 8.1 mph - N/A   Clear
8:53 PM 71.1 °F 55.9 °F 59% 29.86 in 10.0 mi NW 4.6 mph - N/A   Clear
9:53 PM 70.0 °F 57.9 °F 65% 29.86 in 10.0 mi SE 3.5 mph - N/A   Clear
10:53 PM 68.0 °F 55.9 °F 65% 29.87 in 10.0 mi SSE 3.5 mph - N/A   Clear
11:53 PM 66.9 °F 57.0 °F 70% 29.86 in 10.0 mi Calm Calm - N/A   Clear